ONEWEB-0311 (49097 NORAD) Tracking and Keplerian Element Data

This shows tracking and keplerian element data for the satellite.

Feedback or suggestion? Click here.




ElementValue
Catalog49097
NameONEWEB-0311
Epoch Orbit561
Epoch Day262.16668981
Epoch Year2021
RAAN356.4295
Inclination87.4266
Eccentricity0.0018449
Argument of Perigee189.0706
Mean Anonmoly99.6064
Mean Motion15.16982298
Decay Rate-0.00893571
L11 49097U 21075Y 21262.16668981 -.00893571 00000-0 -48539-1 0 9997
L22 49097 87.4266 356.4295 0018449 189.0706 99.6064 15.16982298 5612

Live tracking and technical data element details for ONEWEB-0311 (NORAD 49097). ONEWEB-0311 can be tracked NOW for your location showing map with azimuth and elevation plus other details from your city location.

Track the satellite on the map from your city or location and see movement details for azimuth, elevation, latitude, longitude, range, height, and movement on the map or in text.







IsCatalogInMostPopularTable: catalog: 49097, numindb: 5
Update: records affected: 1



GetName: 49097 ONEWEB-0311

Hit Count: updated at: Fri, 24 Sep 2021 18:54:13 GMT